Regional Weather Roundup
Issued by NWS

Current Version | Previous Version | Text Only | Print | Product List | Glossary On
Versions: 1 2 3 4 5 6 7 8 9 10 11 12 13 14 15 16 17 18 19 20 21 22 23 24 25 26 27 28 29 30 31 32 33 34 35 36 37 38 39 40 41 42 43 44 45 46 47 48 49 50
000
ASUS43 KLMK 040510
RWRKY
KENTUCKY REGIONAL WEATHER ROUNDUP
NATIONAL WEATHER SERVICE LOUISVILLE KY
100 AM EDT WED MAY 04 2016

NOTE "FAIR" INDICATES FEW OR NO CLOUDS BELOW 12,000 FEET
WITH NO SIGNIFICANT WEATHER AND/OR OBSTRUCTIONS TO VISIBILITY.

KYZ001>023-026-027-061>063-070>075-040600-
WESTERN AND SOUTH CENTRAL KENTUCKY

CITY           SKY/WX    TMP DP  RH WIND       PRES   REMARKS
PADUCAH        CLEAR     49  45  86 SW5       29.91F
HENDERSON      MOCLDY    52  45  76 SW3       29.89F
OWENSBORO      MOCLDY    53  47  80 CALM      29.90F
HOPKINSVILLE   PTCLDY    51  46  85 SW5       29.91F
BOWLING GREEN  CLOUDY    53  46  77 CALM      29.90F
GLASGOW        CLOUDY    50  50  99 CALM      29.89F
$$

KYZ024-025-028>034-038-045-046-053-040600-
NORTH CENTRAL KENTUCKY

CITY           SKY/WX    TMP DP  RH WIND       PRES   REMARKS
LOUISVILLE/SDF PTCLDY    54  45  71 SW6       29.86F
LOUISVILLE/LOU CLEAR     50  46  86 CALM      29.87F
FORT KNOX      CLOUDY    49  46  89 SW1       29.86F
$$

KYZ035>037-039>044-047>052-055>060-089>105-040600-
NORTHEAST KENTUCKY

CITY           SKY/WX    TMP DP  RH WIND       PRES   REMARKS
LEXINGTON      CLOUDY    52  48  86 W5        29.86F
COVINGTON      PTCLDY    49  48  97 SW3       29.84F
FRANKFORT      CLOUDY    54  47  77 CALM      29.85F
$$

KYZ054-064>069-076>088-106>120-040600-
SOUTHEAST KENTUCKY

CITY           SKY/WX    TMP DP  RH WIND       PRES   REMARKS
JACKSON        CLOUDY    53  46  77 CALM      29.85F
LONDON         CLOUDY    55  46  71 W6        29.87S
SOMERSET       CLOUDY    52  45  76 W5        29.90S
MIDDLESBORO    CLOUDY    53  49  86 NW3       29.87F
MONTICELLO     CLOUDY    51  47  86 CALM      29.91S
$$





USA.gov is the U.S. government's official web portal to all federal, state and local government web resources and services.